Time,TemperatureF,DewpointF,PressureIn,WindDirection,WindDirectionDegrees,WindSpeedMPH,WindSpeedGustMPH,Humidity,HourlyPrecipIn,Conditions,Clouds,dailyrainin,SoftwareType,DateUTC
2013-04-19 00:02:00,53.0,42.0,-100.00,WNW,294,12.0,14.0,66,-99.99,,,-99.99,,2013-04-19 07:02:00,
2013-04-19 00:12:00,53.0,42.0,-100.00,WNW,294,12.0,14.0,66,-99.99,,,-99.99,,2013-04-19 07:12:00,
2013-04-19 01:02:00,53.0,41.0,-100.00,WNW,295,7.0,9.0,63,-99.99,,,-99.99,,2013-04-19 08:02:00,
2013-04-19 01:12:00,53.0,41.0,-100.00,WNW,295,7.0,9.0,63,-99.99,,,-99.99,,2013-04-19 08:12:00,
2013-04-19 02:01:00,53.0,42.0,-100.00,South,185,2.0,3.0,66,-99.99,,,-99.99,,2013-04-19 09:01:00,
2013-04-19 02:11:00,53.0,42.0,-100.00,South,185,2.0,3.0,66,-99.99,,,-99.99,,2013-04-19 09:11:00,
2013-04-19 03:02:00,51.0,45.0,-100.00,South,172,3.0,6.0,79,-99.99,,,-99.99,,2013-04-19 10:02:00,
2013-04-19 03:13:00,51.0,45.0,-100.00,South,172,3.0,6.0,79,-99.99,,,-99.99,,2013-04-19 10:13:00,
2013-04-19 04:02:00,52.0,43.0,-100.00,WSW,245,3.0,5.0,71,-99.99,,,-99.99,,2013-04-19 11:02:00,
2013-04-19 04:11:00,52.0,43.0,-100.00,WSW,245,3.0,5.0,71,-99.99,,,-99.99,,2013-04-19 11:11:00,
2013-04-19 05:02:00,52.0,44.0,-100.00,WNW,290,5.0,7.0,74,-99.99,,,-99.99,,2013-04-19 12:02:00,
2013-04-19 05:12:00,52.0,44.0,-100.00,WNW,290,5.0,7.0,74,-99.99,,,-99.99,,2013-04-19 12:12:00,
2013-04-19 06:01:00,51.0,46.0,-100.00,SSW,194,3.0,6.0,82,-99.99,,,-99.99,,2013-04-19 13:01:00,
2013-04-19 06:11:00,51.0,46.0,-100.00,SSW,194,3.0,6.0,82,-99.99,,,-99.99,,2013-04-19 13:11:00,
2013-04-19 07:01:00,50.0,47.0,-100.00,SSE,148,8.0,10.0,89,-99.99,,,-99.99,,2013-04-19 14:01:00,
2013-04-19 07:11:00,50.0,47.0,-100.00,SSE,148,8.0,10.0,89,-99.99,,,-99.99,,2013-04-19 14:11:00,
2013-04-19 08:01:00,51.0,47.0,-100.00,SSE,154,6.0,8.0,86,-99.99,,,-99.99,,2013-04-19 15:01:00,
2013-04-19 08:12:00,51.0,47.0,-100.00,SSE,154,6.0,8.0,86,-99.99,,,-99.99,,2013-04-19 15:12:00,
2013-04-19 09:03:00,52.0,48.0,-100.00,SSE,160,2.0,3.0,86,-99.99,,,-99.99,,2013-04-19 16:03:00,
2013-04-19 09:12:00,52.0,48.0,-100.00,SSE,160,2.0,3.0,86,-99.99,,,-99.99,,2013-04-19 16:12:00,
2013-04-19 10:02:00,51.0,47.0,-100.00,NNW,329,7.0,9.0,86,-99.99,,,-99.99,,2013-04-19 17:02:00,
2013-04-19 10:12:00,51.0,47.0,-100.00,NNW,329,7.0,9.0,86,-99.99,,,-99.99,,2013-04-19 17:12:00,
2013-04-19 11:01:00,53.0,48.0,-100.00,NW,313,7.0,9.0,83,-99.99,,,-99.99,,2013-04-19 18:01:00,
2013-04-19 11:13:00,53.0,48.0,-100.00,NW,313,7.0,9.0,83,-99.99,,,-99.99,,2013-04-19 18:13:00,
2013-04-19 12:01:00,57.0,44.0,-100.00,NW,314,9.0,12.0,61,-99.99,,,-99.99,,2013-04-19 19:01:00,
2013-04-19 12:11:00,57.0,44.0,-100.00,NW,314,9.0,12.0,61,-99.99,,,-99.99,,2013-04-19 19:11:00,
2013-04-19 13:01:00,59.0,43.0,-100.00,NW,309,8.0,20.0,55,-99.99,,,-99.99,,2013-04-19 20:01:00,
2013-04-19 13:11:00,59.0,43.0,-100.00,NW,309,8.0,20.0,55,-99.99,,,-99.99,,2013-04-19 20:11:00,
2013-04-19 14:01:00,62.0,41.0,-100.00,WSW,254,16.0,22.0,46,-99.99,,,-99.99,,2013-04-19 21:01:00,
2013-04-19 14:11:00,62.0,41.0,-100.00,WSW,254,16.0,22.0,46,-99.99,,,-99.99,,2013-04-19 21:11:00,
2013-04-19 15:02:00,66.0,40.0,-100.00,West,273,23.0,33.0,38,-99.99,,,-99.99,,2013-04-19 22:02:00,
2013-04-19 15:12:00,66.0,40.0,-100.00,West,273,23.0,33.0,38,-99.99,,,-99.99,,2013-04-19 22:12:00,
2013-04-19 16:02:00,68.0,38.0,-100.00,West,264,25.0,35.0,33,-99.99,,,-99.99,,2013-04-19 23:02:00,
2013-04-19 16:11:00,68.0,38.0,-100.00,West,264,25.0,35.0,33,-99.99,,,-99.99,,2013-04-19 23:11:00,
2013-04-19 17:02:00,66.0,38.0,-100.00,West,264,20.0,30.0,35,-99.99,,,-99.99,,2013-04-20 00:02:00,
2013-04-19 17:12:00,66.0,38.0,-100.00,West,264,20.0,30.0,35,-99.99,,,-99.99,,2013-04-20 00:12:00,
2013-04-19 18:01:00,67.0,37.0,-100.00,West,261,15.0,22.0,33,-99.99,,,-99.99,,2013-04-20 01:01:00,
2013-04-19 18:11:00,67.0,37.0,-100.00,West,261,15.0,22.0,33,-99.99,,,-99.99,,2013-04-20 01:11:00,
2013-04-19 19:01:00,65.0,39.0,-100.00,WNW,303,16.0,22.0,38,-99.99,,,-99.99,,2013-04-20 02:01:00,
2013-04-19 19:11:00,65.0,39.0,-100.00,WNW,303,16.0,22.0,38,-99.99,,,-99.99,,2013-04-20 02:11:00,
2013-04-19 20:01:00,62.0,39.0,-100.00,NW,307,17.0,24.0,42,-99.99,,,-99.99,,2013-04-20 03:01:00,
2013-04-19 20:11:00,62.0,39.0,-100.00,NW,307,17.0,24.0,42,-99.99,,,-99.99,,2013-04-20 03:11:00,
2013-04-19 21:03:00,61.0,38.0,-100.00,WNW,292,18.0,27.0,42,-99.99,,,-99.99,,2013-04-20 04:03:00,
2013-04-19 21:12:00,61.0,38.0,-100.00,WNW,292,18.0,27.0,42,-99.99,,,-99.99,,2013-04-20 04:12:00,
2013-04-19 22:02:00,57.0,40.0,-100.00,WNW,293,15.0,20.0,52,-99.99,,,-99.99,,2013-04-20 05:02:00,
2013-04-19 22:12:00,57.0,40.0,-100.00,WNW,293,15.0,20.0,52,-99.99,,,-99.99,,2013-04-20 05:12:00,
2013-04-19 23:01:00,54.0,41.0,-100.00,WNW,302,16.0,22.0,61,-99.99,,,-99.99,,2013-04-20 06:01:00,
2013-04-19 23:12:00,54.0,41.0,-100.00,WNW,302,16.0,22.0,61,-99.99,,,-99.99,,2013-04-20 06:12:00,